ARG1244 SAWC-SAWH

Flight info

Callsign ARG1244
Flight time 1h 6m
Altitude 37000
Route DEVIS2D DEVIS UW52 GAL UW42 GRA DCT DABLI DABLI1Q
Aircraft B38M/M-SDE1FGHILORVWXY/HB1

Departure

Time 2026-04-20 19:37
Airport El Calafate - Commander Armando Tola International Airport (SAWC)

Arrival

Time 2026-04-20 20:43
Airport Ushuaia - Malvinas Argentinas International Airport (SAWH)
Time Latitude Longitude Altitude Speed Heading
2026-04-20 18:41 -50.28353 -72.05585 643 ft 0 kts 175°
2026-04-20 19:13 -50.28351 -72.05585 643 ft 2 kts 175°
2026-04-20 19:13 -50.28325 -72.05588 633 ft 4 kts 175°
2026-04-20 19:13 -50.28300 -72.05591 646 ft 2 kts 175°
2026-04-20 19:14 -50.28277 -72.05601 646 ft 4 kts 142°
2026-04-20 19:14 -50.28266 -72.05632 644 ft 4 kts 89°
2026-04-20 19:14 -50.28271 -72.05672 646 ft 4 kts 73°
2026-04-20 19:14 -50.28277 -72.05711 645 ft 2 kts 84°
2026-04-20 19:15 -50.28278 -72.05715 645 ft 2 kts 85°
2026-04-20 19:23 -50.28278 -72.05713 644 ft 1 kts 85°
2026-04-20 19:23 -50.28276 -72.05683 644 ft 5 kts 85°
2026-04-20 19:24 -50.28275 -72.05660 644 ft 2 kts 85°
2026-04-20 19:24 -50.28273 -72.05625 644 ft 3 kts 85°
2026-04-20 19:24 -50.28270 -72.05575 644 ft 6 kts 85°
2026-04-20 19:24 -50.28265 -72.05498 644 ft 8 kts 84°
2026-04-20 19:25 -50.28264 -72.05485 644 ft 0 kts 84°
2026-04-20 19:27 -50.28264 -72.05478 644 ft 3 kts 84°
2026-04-20 19:27 -50.28233 -72.05407 644 ft 13 kts 19°
2026-04-20 19:27 -50.28179 -72.05406 644 ft 0 kts 355°
2026-04-20 19:28 -50.28168 -72.05407 646 ft 3 kts 355°
2026-04-20 19:28 -50.28165 -72.05408 644 ft 0 kts 355°
2026-04-20 19:30 -50.28160 -72.05408 644 ft 2 kts 355°
2026-04-20 19:30 -50.28138 -72.05411 644 ft 4 kts 355°
2026-04-20 19:30 -50.28110 -72.05414 644 ft 0 kts 358°
2026-04-20 19:34 -50.28089 -72.05415 644 ft 8 kts 358°
2026-04-20 19:34 -50.28022 -72.05351 645 ft 17 kts 76°
2026-04-20 19:34 -50.28009 -72.05100 645 ft 29 kts 85°
2026-04-20 19:35 -50.27983 -72.04742 646 ft 37 kts 85°
2026-04-20 19:35 -50.27964 -72.04329 645 ft 39 kts 87°
2026-04-20 19:35 -50.27947 -72.03892 643 ft 41 kts 86°
2026-04-20 19:35 -50.27952 -72.03576 644 ft 13 kts 33°
2026-04-20 19:36 -50.27920 -72.03647 644 ft 15 kts 259°
2026-04-20 19:36 -50.27942 -72.04004 644 ft 66 kts 264°
2026-04-20 19:36 -50.28012 -72.05131 645 ft 140 kts 264°
2026-04-20 19:36 -50.28107 -72.06882 990 ft 178 kts 263°
2026-04-20 19:37 -50.28207 -72.08865 1996 ft 189 kts 268°
2026-04-20 19:37 -50.28316 -72.11103 2602 ft 223 kts 268°
2026-04-20 19:37 -50.28469 -72.13605 3559 ft 235 kts 266°
2026-04-20 19:37 -50.28641 -72.16151 4803 ft 239 kts 268°
2026-04-20 19:38 -50.28808 -72.18785 5914 ft 248 kts 268°
2026-04-20 19:38 -50.28973 -72.21456 7167 ft 245 kts 268°
2026-04-20 19:38 -50.29132 -72.24110 8394 ft 245 kts 268°
2026-04-20 19:38 -50.29287 -72.26767 9557 ft 247 kts 269°
2026-04-20 19:39 -50.29442 -72.29456 10584 ft 249 kts 269°
2026-04-20 19:39 -50.29598 -72.32176 11547 ft 254 kts 269°
2026-04-20 19:39 -50.29755 -72.34949 12513 ft 257 kts 269°
2026-04-20 19:39 -50.29929 -72.37746 13480 ft 262 kts 264°
2026-04-20 19:40 -50.30532 -72.40501 14181 ft 280 kts 246°
2026-04-20 19:40 -50.31880 -72.42908 14658 ft 311 kts 224°
2026-04-20 19:40 -50.33903 -72.44476 15205 ft 342 kts 203°
2026-04-20 19:40 -50.36361 -72.44798 15762 ft 372 kts 180°
2026-04-20 19:41 -50.38868 -72.43482 16607 ft 389 kts 156°
2026-04-20 19:41 -50.41085 -72.40974 17359 ft 403 kts 140°
2026-04-20 19:41 -50.42897 -72.37564 18123 ft 411 kts 125°
2026-04-20 19:41 -50.44199 -72.33545 18755 ft 417 kts 113°
2026-04-20 19:42 -50.45251 -72.29346 19397 ft 420 kts 111°
2026-04-20 19:42 -50.46261 -72.25021 20017 ft 424 kts 110°
2026-04-20 19:42 -50.47257 -72.20589 20662 ft 427 kts 110°
2026-04-20 19:42 -50.48231 -72.16164 21301 ft 431 kts 110°
2026-04-20 19:43 -50.49188 -72.11750 21900 ft 434 kts 110°
2026-04-20 19:43 -50.50158 -72.07246 22500 ft 437 kts 110°
2026-04-20 19:43 -50.51132 -72.02701 23112 ft 440 kts 110°
2026-04-20 19:43 -50.52122 -71.98073 23634 ft 443 kts 109°
2026-04-20 19:44 -50.53094 -71.93525 24125 ft 446 kts 109°
2026-04-20 19:44 -50.54082 -71.88884 24587 ft 450 kts 110°
2026-04-20 19:44 -50.55076 -71.84208 25046 ft 453 kts 110°
2026-04-20 19:44 -50.56111 -71.79518 25499 ft 455 kts 115°
2026-04-20 19:45 -50.57719 -71.75276 25951 ft 451 kts 132°
2026-04-20 19:45 -50.59755 -71.71508 26337 ft 454 kts 134°
2026-04-20 19:45 -50.61826 -71.67730 26765 ft 457 kts 135°
2026-04-20 19:45 -50.63923 -71.63945 27205 ft 460 kts 135°
2026-04-20 19:46 -50.66041 -71.60149 27600 ft 464 kts 135°
2026-04-20 19:46 -50.68182 -71.56315 28022 ft 467 kts 135°
2026-04-20 19:46 -50.70332 -71.52462 28459 ft 469 kts 135°
2026-04-20 19:46 -50.72492 -71.48588 28864 ft 472 kts 135°
2026-04-20 19:47 -50.74662 -71.44688 29266 ft 474 kts 135°
2026-04-20 19:47 -50.76845 -71.40760 29687 ft 477 kts 135°
2026-04-20 19:47 -50.79038 -71.36808 30029 ft 480 kts 135°
2026-04-20 19:47 -50.81238 -71.32836 30363 ft 482 kts 135°
2026-04-20 19:48 -50.83454 -71.28829 30693 ft 484 kts 135°
2026-04-20 19:48 -50.85669 -71.24818 31006 ft 487 kts 135°
2026-04-20 19:48 -50.87902 -71.20770 31327 ft 489 kts 135°
2026-04-20 19:48 -50.90142 -71.16701 31629 ft 491 kts 135°
2026-04-20 19:49 -50.92395 -71.12601 31932 ft 494 kts 135°
2026-04-20 19:49 -50.94656 -71.08481 32231 ft 496 kts 135°
2026-04-20 19:49 -50.96926 -71.04339 32521 ft 499 kts 135°
2026-04-20 19:49 -50.99197 -71.00159 32809 ft 502 kts 133°
2026-04-20 19:50 -51.01124 -70.95487 33100 ft 511 kts 117°
2026-04-20 19:50 -51.02267 -70.90132 33407 ft 515 kts 101°
2026-04-20 19:50 -51.02771 -70.84490 33725 ft 517 kts 98°
2026-04-20 19:50 -51.03255 -70.78838 34015 ft 517 kts 98°
2026-04-20 19:51 -51.03717 -70.73169 34346 ft 517 kts 97°
2026-04-20 19:51 -51.04161 -70.67500 34682 ft 517 kts 97°
2026-04-20 19:51 -51.04600 -70.61842 35026 ft 516 kts 97°
2026-04-20 19:51 -51.05056 -70.56189 35373 ft 515 kts 101°
2026-04-20 19:52 -51.05945 -70.50702 35707 ft 511 kts 115°
2026-04-20 19:52 -51.07623 -70.45789 36063 ft 502 kts 129°
2026-04-20 19:52 -51.09699 -70.41349 36361 ft 501 kts 131°
2026-04-20 19:52 -51.11799 -70.36910 36603 ft 502 kts 131°
2026-04-20 19:53 -51.13913 -70.32494 36723 ft 501 kts 131°
2026-04-20 19:53 -51.18148 -70.23719 36726 ft 499 kts 131°
2026-04-20 19:54 -51.22378 -70.14942 36720 ft 499 kts 131°
2026-04-20 19:54 -51.26570 -70.06216 36719 ft 498 kts 131°
2026-04-20 19:55 -51.30783 -69.97416 36720 ft 498 kts 131°
2026-04-20 19:55 -51.34980 -69.88623 36724 ft 498 kts 131°
2026-04-20 19:56 -51.38494 -69.81234 36725 ft 498 kts 131°
2026-04-20 19:56 -51.43383 -69.70922 36731 ft 497 kts 131°
2026-04-20 19:57 -51.47531 -69.62139 36738 ft 497 kts 131°
2026-04-20 19:57 -51.51698 -69.53287 36740 ft 496 kts 131°
2026-04-20 19:58 -51.55850 -69.44437 36748 ft 496 kts 131°
2026-04-20 19:58 -51.60087 -69.35740 36738 ft 489 kts 141°
2026-04-20 19:58 -51.62724 -69.32430 36745 ft 475 kts 157°
2026-04-20 19:59 -51.65676 -69.30124 36747 ft 472 kts 161°
2026-04-20 19:59 -51.71664 -69.25784 36754 ft 471 kts 162°
2026-04-20 20:00 -51.77674 -69.21551 36744 ft 471 kts 163°
2026-04-20 20:00 -51.83683 -69.17336 36737 ft 471 kts 163°
2026-04-20 20:01 -51.89682 -69.13120 36732 ft 470 kts 163°
2026-04-20 20:01 -51.94671 -69.09603 36729 ft 470 kts 163°
2026-04-20 20:02 -52.00666 -69.05367 36733 ft 470 kts 163°
2026-04-20 20:02 -52.06666 -69.01114 36734 ft 470 kts 163°
2026-04-20 20:03 -52.12651 -68.96859 36734 ft 469 kts 163°
2026-04-20 20:03 -52.18629 -68.92597 36733 ft 469 kts 163°
2026-04-20 20:04 -52.24605 -68.88324 36739 ft 469 kts 163°
2026-04-20 20:04 -52.30583 -68.84037 36741 ft 469 kts 163°
2026-04-20 20:05 -52.36551 -68.79743 36740 ft 469 kts 163°
2026-04-20 20:05 -52.42518 -68.75438 36731 ft 469 kts 163°
2026-04-20 20:06 -52.48486 -68.71120 36735 ft 469 kts 163°
2026-04-20 20:06 -52.54446 -68.66794 36732 ft 469 kts 163°
2026-04-20 20:07 -52.60403 -68.62458 36731 ft 468 kts 163°
2026-04-20 20:07 -52.66359 -68.58109 36728 ft 468 kts 163°
2026-04-20 20:08 -52.72314 -68.53750 36729 ft 468 kts 163°
2026-04-20 20:08 -52.78267 -68.49381 36729 ft 468 kts 163°
2026-04-20 20:09 -52.84221 -68.44997 36726 ft 468 kts 163°
2026-04-20 20:09 -52.90170 -68.40606 36722 ft 468 kts 163°
2026-04-20 20:10 -52.96117 -68.36205 36722 ft 468 kts 163°
2026-04-20 20:10 -53.02074 -68.31783 36722 ft 469 kts 163°
2026-04-20 20:11 -53.08026 -68.27352 36716 ft 469 kts 163°
2026-04-20 20:11 -53.13975 -68.22908 36712 ft 469 kts 163°
2026-04-20 20:12 -53.19928 -68.18449 36709 ft 469 kts 163°
2026-04-20 20:12 -53.25873 -68.13981 36207 ft 467 kts 163°
2026-04-20 20:13 -53.31817 -68.09501 35393 ft 470 kts 163°
2026-04-20 20:13 -53.34799 -68.07248 34786 ft 469 kts 163°
2026-04-20 20:13 -53.37766 -68.05003 34204 ft 467 kts 163°
2026-04-20 20:13 -53.40721 -68.02763 33643 ft 465 kts 163°
2026-04-20 20:14 -53.43661 -68.00532 33012 ft 463 kts 163°
2026-04-20 20:14 -53.46584 -67.98310 32444 ft 459 kts 163°
2026-04-20 20:14 -53.49482 -67.96104 31905 ft 455 kts 163°
2026-04-20 20:14 -53.52352 -67.93915 31365 ft 452 kts 163°
2026-04-20 20:15 -53.55204 -67.91738 30836 ft 449 kts 163°
2026-04-20 20:15 -53.58043 -67.89567 30295 ft 446 kts 163°
2026-04-20 20:15 -53.60858 -67.87411 29771 ft 443 kts 163°
2026-04-20 20:15 -53.63657 -67.85265 29135 ft 440 kts 163°
2026-04-20 20:16 -53.66426 -67.83138 28595 ft 436 kts 163°
2026-04-20 20:16 -53.69169 -67.81029 28083 ft 431 kts 163°
2026-04-20 20:16 -53.71885 -67.78939 27573 ft 427 kts 163°
2026-04-20 20:16 -53.74576 -67.76864 27059 ft 423 kts 163°
2026-04-20 20:17 -53.77274 -67.75035 26446 ft 411 kts 174°
2026-04-20 20:17 -53.80043 -67.74450 25969 ft 395 kts 184°
2026-04-20 20:17 -53.82773 -67.74101 25574 ft 390 kts 184°
2026-04-20 20:17 -53.85468 -67.73771 25113 ft 386 kts 184°
2026-04-20 20:18 -53.88137 -67.73468 24653 ft 383 kts 184°
2026-04-20 20:18 -53.90788 -67.73178 24190 ft 380 kts 185°
2026-04-20 20:18 -53.93422 -67.72895 23731 ft 378 kts 185°
2026-04-20 20:18 -53.96039 -67.72615 23276 ft 376 kts 185°
2026-04-20 20:19 -53.98639 -67.72337 22741 ft 374 kts 184°
2026-04-20 20:19 -54.01230 -67.72060 22239 ft 370 kts 184°
2026-04-20 20:19 -54.03789 -67.71785 21787 ft 367 kts 184°
2026-04-20 20:19 -54.06325 -67.71514 21346 ft 363 kts 185°
2026-04-20 20:20 -54.08799 -67.71248 20922 ft 359 kts 184°
2026-04-20 20:20 -54.11314 -67.70977 20488 ft 356 kts 185°
2026-04-20 20:20 -54.13737 -67.70716 20069 ft 352 kts 185°
2026-04-20 20:20 -54.16173 -67.70455 19648 ft 350 kts 184°
2026-04-20 20:21 -54.18608 -67.70192 19229 ft 351 kts 184°
2026-04-20 20:21 -54.21046 -67.69928 18804 ft 351 kts 184°
2026-04-20 20:21 -54.23483 -67.69665 18388 ft 351 kts 184°
2026-04-20 20:21 -54.25914 -67.69402 17967 ft 350 kts 184°
2026-04-20 20:22 -54.28344 -67.69138 17491 ft 348 kts 184°
2026-04-20 20:22 -54.30750 -67.68878 17053 ft 345 kts 184°
2026-04-20 20:22 -54.33103 -67.68620 16899 ft 333 kts 184°
2026-04-20 20:22 -54.35397 -67.68371 16596 ft 330 kts 184°
2026-04-20 20:23 -54.37705 -67.68121 16192 ft 335 kts 184°
2026-04-20 20:23 -54.40039 -67.67867 15787 ft 336 kts 184°
2026-04-20 20:23 -54.42382 -67.67611 15371 ft 337 kts 184°
2026-04-20 20:23 -54.44715 -67.67356 14960 ft 337 kts 184°
2026-04-20 20:24 -54.47051 -67.67101 14546 ft 336 kts 184°
2026-04-20 20:24 -54.49378 -67.66846 14132 ft 333 kts 184°
2026-04-20 20:24 -54.51693 -67.66592 13617 ft 334 kts 184°
2026-04-20 20:24 -54.54024 -67.66335 13005 ft 337 kts 184°
2026-04-20 20:25 -54.56357 -67.66077 12464 ft 336 kts 184°
2026-04-20 20:25 -54.58690 -67.65820 11949 ft 335 kts 183°
2026-04-20 20:25 -54.61014 -67.65563 11428 ft 334 kts 183°
2026-04-20 20:25 -54.63326 -67.65308 10905 ft 333 kts 183°
2026-04-20 20:26 -54.65636 -67.65052 10387 ft 332 kts 183°
2026-04-20 20:26 -54.67929 -67.64450 9927 ft 338 kts 164°
2026-04-20 20:26 -54.69815 -67.62154 10040 ft 330 kts 134°
2026-04-20 20:26 -54.70870 -67.58732 10040 ft 321 kts 104°
2026-04-20 20:27 -54.70923 -67.54962 10029 ft 312 kts 74°
2026-04-20 20:27 -54.70023 -67.51619 9977 ft 306 kts 47°
2026-04-20 20:27 -54.68436 -67.49427 9681 ft 246 kts
2026-04-20 20:27 -54.66951 -67.49050 10441 ft 220 kts 351°
2026-04-20 20:28 -54.65915 -67.49109 10233 ft 234 kts 348°
2026-04-20 20:28 -54.63585 -67.49250 9128 ft 267 kts 352°
2026-04-20 20:28 -54.61748 -67.49281 9152 ft 247 kts 349°
2026-04-20 20:28 -54.60003 -67.49432 9711 ft 260 kts 349°
2026-04-20 20:29 -54.58164 -67.49589 9999 ft 269 kts 349°
2026-04-20 20:29 -54.56365 -67.50170 10019 ft 257 kts 330°
2026-04-20 20:29 -54.54919 -67.51834 10058 ft 245 kts 308°
2026-04-20 20:29 -54.54008 -67.54263 10078 ft 241 kts 289°
2026-04-20 20:30 -54.53717 -67.57072 10056 ft 239 kts 269°
2026-04-20 20:30 -54.54057 -67.59873 10052 ft 243 kts 251°
2026-04-20 20:30 -54.54986 -67.62341 10048 ft 251 kts 232°
2026-04-20 20:30 -54.56428 -67.64168 10025 ft 268 kts 213°
2026-04-20 20:31 -54.58278 -67.65025 10072 ft 286 kts 193°
2026-04-20 20:31 -54.60300 -67.65159 10048 ft 296 kts 188°
2026-04-20 20:31 -54.62389 -67.65145 10009 ft 303 kts 186°
2026-04-20 20:31 -54.64505 -67.65035 9812 ft 305 kts 185°
2026-04-20 20:32 -54.66598 -67.64871 9569 ft 304 kts 184°
2026-04-20 20:32 -54.68723 -67.64669 9191 ft 299 kts 184°
2026-04-20 20:32 -54.70754 -67.64458 9016 ft 289 kts 184°
2026-04-20 20:32 -54.72731 -67.64244 8594 ft 285 kts 184°
2026-04-20 20:33 -54.74684 -67.64037 8191 ft 281 kts 185°
2026-04-20 20:33 -54.76608 -67.63833 7799 ft 269 kts 184°
2026-04-20 20:33 -54.78407 -67.63732 7673 ft 243 kts 195°
2026-04-20 20:33 -54.79824 -67.64674 7524 ft 199 kts 225°
2026-04-20 20:34 -54.80785 -67.66150 7441 ft 176 kts 231°
2026-04-20 20:34 -54.81459 -67.67797 7265 ft 162 kts 258°
2026-04-20 20:34 -54.81657 -67.69650 6943 ft 153 kts 265°
2026-04-20 20:34 -54.81795 -67.71425 6759 ft 147 kts 266°
2026-04-20 20:35 -54.81915 -67.73191 6652 ft 147 kts 267°
2026-04-20 20:35 -54.82021 -67.74954 6495 ft 147 kts 268°
2026-04-20 20:35 -54.82118 -67.76714 6399 ft 146 kts 269°
2026-04-20 20:35 -54.82210 -67.78484 6290 ft 147 kts 269°
2026-04-20 20:36 -54.82294 -67.80185 6201 ft 139 kts 269°
2026-04-20 20:36 -54.82372 -67.81840 6028 ft 137 kts 269°
2026-04-20 20:36 -54.82449 -67.83480 5805 ft 137 kts 270°
2026-04-20 20:36 -54.82528 -67.85125 5638 ft 137 kts 270°
2026-04-20 20:37 -54.82596 -67.86753 5362 ft 134 kts 270°
2026-04-20 20:37 -54.82669 -67.88364 5236 ft 135 kts 270°
2026-04-20 20:37 -54.82736 -67.89993 5207 ft 135 kts 270°
2026-04-20 20:37 -54.82805 -67.91603 5097 ft 134 kts 270°
2026-04-20 20:38 -54.82870 -67.93229 5172 ft 137 kts 271°
2026-04-20 20:38 -54.82938 -67.94861 5069 ft 134 kts 270°
2026-04-20 20:38 -54.83014 -67.96508 4335 ft 152 kts 271°
2026-04-20 20:38 -54.83112 -67.98465 3591 ft 155 kts 270°
2026-04-20 20:39 -54.83195 -68.00213 3532 ft 144 kts 271°
2026-04-20 20:39 -54.83269 -68.01956 3469 ft 145 kts 272°
2026-04-20 20:39 -54.83338 -68.03698 3240 ft 145 kts 271°
2026-04-20 20:39 -54.83406 -68.05447 3028 ft 146 kts 272°
2026-04-20 20:40 -54.83471 -68.07213 2824 ft 148 kts 271°
2026-04-20 20:40 -54.83542 -68.09005 2586 ft 149 kts 271°
2026-04-20 20:40 -54.83611 -68.10786 2354 ft 150 kts 270°
2026-04-20 20:40 -54.83681 -68.12621 2113 ft 151 kts 270°
2026-04-20 20:41 -54.83751 -68.14449 1861 ft 152 kts 269°
2026-04-20 20:41 -54.83820 -68.16271 1603 ft 152 kts 270°
2026-04-20 20:41 -54.83891 -68.18103 1363 ft 152 kts 270°
2026-04-20 20:41 -54.83960 -68.19936 1106 ft 153 kts 268°
2026-04-20 20:42 -54.84032 -68.21779 833 ft 153 kts 268°
2026-04-20 20:42 -54.84079 -68.23008 540 ft 152 kts 269°
2026-04-20 20:42 -54.84154 -68.24869 357 ft 156 kts 268°
2026-04-20 20:42 -54.84248 -68.27306 152 ft 142 kts 269°
2026-04-20 20:43 -54.84289 -68.28402 84 ft 115 kts 266°
2026-04-20 20:43 -54.84334 -68.29410 90 ft 80 kts 267°
2026-04-20 20:43 -54.84379 -68.30645 84 ft 69 kts 266°
2026-04-20 20:43 -54.84363 -68.30937 90 ft 22 kts 318°
2026-04-20 20:44 -54.84208 -68.30967 88 ft 24 kts 358°
2026-04-20 20:44 -54.84097 -68.31037 89 ft 13 kts 279°
2026-04-20 20:44 -54.84098 -68.31188 88 ft 10 kts 265°
2026-04-20 20:44 -54.84067 -68.31275 87 ft 0 kts
2026-04-20 20:45 -54.84055 -68.31269 88 ft 3 kts 16°
2026-04-20 20:45 -54.84046 -68.31264 87 ft 0 kts 19°
2026-04-20 20:45 -54.84032 -68.31255 89 ft 2 kts 20°
2026-04-20 20:45 -54.84029 -68.31253 88 ft 0 kts 21°